Zurück zum Katalog

STARLINK-4535

AktivKommunikationVLEO
NORAD 53392·PAYLOAD·🇺🇸 United States

Gestartet Aug 10, 2022 von Cape Canaveral Space Force Station

Loading…

Nächste Überflüge (nächste 24 Stunden)

TLE

AktuellSource: CelesTrak SupGP

Epoche: Sep 15, 2026, 02:37 UTC

1 53392C 22097E   26258.10951389  .00038512  00000+0  12386-2 0  2589
2 53392  53.1591 344.4568 0001387 102.9568 179.1510 15.31678465    13

Verfolge STARLINK-4535 in Echtzeit mit AllMySat

Download on the App Store